OneWeb SL0446

operational
NORAD ID: 51640 Int'l Des: 2022-012 Owner: ONEWEBN Country: UK Constellation: oneweb
LEOCIRCULARPOLARONEWEB_TYPE

OneWeb SL0446について

説明を読み込み中...

リアルタイム位置

3D地球を読み込み中...

次回通過

高度履歴

Altitude vs Time

uPlot chart will show altitude changes over time

軌道要素

1 51640U 22012U 25260.57441705 -.00000122 00000-0 -38572-3 0 9996
2 51640 87.8742 90.6542 0001770 94.1792 265.9538 13.10375443173625
Epoch: Sep 17, 2025 • Age: 17 hours

現在のステータス

高度 1227.2 km
速度 7.24 km/s
衛星直下点 -12.23°S, 164.66°E
打ち上げ日 Feb 10, 2022
運用期間 3.6 years
タイプ internet

技術仕様

分類 Payload
質量 148.00 kg
乾燥質量 140.00 kg
総質量 148.00 kg
長さ 1.30 m
直径 1.00 m
スパン 5.00 m
形状 Trapezoid+2 pan
製造者 ONEWUS
バスタイプ ARROW
フェーズステータス In Orbit
所有者/国 ONEWEBN/UK

大規模コンステレーション

Loading constellations...